www.pogodaiklimat.ru

Погода и климат >> Архив погоды >> Россия >> Псковская область >> Пушкинские Горы


АРХИВ ПОГОДЫ в Пушкинских Горах

Время (UTC), дата Ветер
(напр.,м/с)
 
Видим.   Явления Облачность Т
(С)
Тd
(С)
f
(%)
Тe
(С)
Тes
(С)
Комфортность P
(гПа)
Po
(гПа)
Тmin
(С)
Tmax
(С)
R
(мм)
R24
(мм)
S
(см)
03 16.08 штиль 0 20 км 9/9 600 м
[Cb cap]
+10.5 +10.2 98 +10 +10 1017.4 1004.8 +9.0
06 16.08 СВ 1 20 км 1/1 600 м
[Cb cap]
+16.6 +11.9 74 +17 +22 1017.4 1005.1 +9.0
09 16.08 З 1 20 км 5/5 1000 м
[Cb cap]
+19.9 +9.7 52 +22 +29 комфорт 1017.3 1005.1
12 16.08 СЗ 1 20 км 8/8 1000 м
[Cb cap]
+21.4 +8.9 45 +23 +25 комфорт 1017.1 1005.0
15 16.08 СЗ 1 20 км 5/5 1000 м
[Cu med, cong]
+20.9 +9.4 48 +24 +25 комфорт 1016.7 1004.6
18 16.08 В 1 20 км 1/0
[Ci fib]
+14.0 +10.7 80 +14 +14 1017.6 1005.2 +21.8
21 16.08 штиль 0 20 км ясно +10.2 +9.6 96 +9 +9 1018.3 1005.7
00 17.08 штиль 0 10 км ясно +8.7 +8.5 99 +8 +8 1018.8 1006.1
03 17.08 штиль 0 20 км ясно +7.3 +7.2 99 +6 +6 1019.0 1006.2 +7.1
06 17.08 штиль 0 20 км ясно +16.7 +12.6 77 +17 +22 1018.9 1006.6 +7.1
09 17.08 СВ 1 20 км н/о +20.5 +10.6 53 +23 +23 комфорт 1018.3 1006.1
12 17.08 СВ 2 50 км 1/1 1000 м
[Cu hum]
+21.4 +8.3 43 +23 +31 комфорт 1017.3 1005.2
15 17.08 СВ 1 20 км 3/3 1000 м
[Cu med, cong]
+21.2 +9.1 46 +22 +24 комфорт 1016.4 1004.3
18 17.08 В 1 20 км ясно 1016.9 1004.3
21 17.08 В 1 20 км ясно +11.4 +9.7 89 +11 +11 1016.0 1003.5
00 18.08 штиль 0 20 км 1/0
[Ac lent]
+8.9 +8.5 97 +8 +8 1016.0 1003.3
03 18.08 штиль 0 20 км 9/0
[Ac As]
+9.8 +9.6 99 +9 +9 1014.9 1002.3 +8.6
06 18.08 СЗ 1 50 км 9/0
[Ac trans]
+13.2 +11.4 89 +13 +15 1014.3 1001.9 +8.6
09 18.08 С 2 50 км 8/1 600 м
[Cu hum Ac trans Cc]
+20.2 +13.5 65 +23 +29 комфорт 1013.4 1001.3
12 18.08 С 2 50 км 5/5 1000 м
[Cu med, cong]
+22.3 +11.8 51 +25 +29 комфорт 1012.7 1000.7
15 18.08 С 1 50 км 3/3 1000 м
[Cu med, cong]
+21.9 +11.9 53 +24 +26 комфорт 1013.1 1001.0
18 18.08 В 1 20 км 1/0
[Ci fib]
+14.6 +13.3 92 +15 +15 1013.6 1001.2 +23.6
21 18.08 ЮВ 1 10 км 1/0
[Ci fib]
+11.6 +10.9 95 +11 +11 1013.7 1001.2
00 19.08 Ю 1 1000 м дымка 1/0
[Ci fib]
+12.4 +11.0 91 +12 +12 1013.9 1001.4
03 19.08 ЮВ 3 2000 м дымка 3/0
[Ci fib]
+13.6 +10.9 84 +12 +12 1013.5 1001.1 +11.2
06 19.08 Ю 3 20 км 10/0
[Ac trans]
+17.7 +12.9 73 +18 +19 1013.1 1000.9 +11.2
09 19.08 Ю 3 20 км 9/5 1000 м
[Sc Ac As]
+21.4 +15.4 69 +25 +27 комфорт 1012.5 1000.4
12 19.08 ЮЗ 3 20 км 8/4 1000 м
[Cu med, cong Ac trans Ci fib]
+25.6 +17.0 59 +29 +32 душно 1012.7 1000.8
15 19.08 ЮЗ 1 20 км 9/1 1000 м
[Cu med, cong Ac trans]
+25.4 +17.6 62 +30 +31 душно 1013.5 1001.6
18 19.08 н/о +18.1 1014.5 1002.5 +26.8
21 19.08 С 1 20 км {гроза, ливн. осадки} 10/10 300 м
[Cb cap]
+19.0 +18.3 96 +22 +22 комфорт 1016.2 1004.0
00 20.08 С 1 20 км {гроза, ливн. осадки} 9/4 600 м
[Cb cap Ac trans]
+17.1 +16.5 96 +18 +18 1017.7 1005.4
03 20.08 штиль 0 20 км 9/3 600 м
[Cb cap Ac As]
+15.4 +15.1 98 +15 +15 1019.3 1006.9 +15.3 0.3
06 20.08 С 1 20 км 9/9 600 м
[Sc]
+16.6 +13.8 84 +17 +18 1021.3 1008.9 +15.3 0.3
09 20.08 З 1 50 км 6/3 1000 м
[Cu med, cong Ac cuf]
+20.7 +11.1 54 +24 +30 комфорт 1021.9 1009.7
12 20.08 З 1 50 км 6/4 1000 м
[Cu med, cong Ac cuf Ci fib]
+23.2 +12.5 51 +26 +31 жарко 1022.2 1010.0
15 20.08 З 1 20 км 9/6 600 м
[Cu med, cong Ac trans Ci fib]
+21.4 +14.2 64 +24 +25 комфорт 1022.8 1010.6
18 20.08 В 1 20 км 1/0
[Ci fib]
+15.8 +14.0 89 +16 +16 1024.0 1011.6 +23.8
21 20.08 штиль 0 20 км 9/0
[Ac As]
+13.1 +12.4 96 +13 +13 1025.0 1012.4
00 21.08 ЮВ 1 10 км 5/0
[Ac trans]
+13.2 +12.7 97 +13 +13 1025.0 1012.4
03 21.08 штиль 0 10 км 3/0
[Ac cast Ci fib]
+11.2 +11.0 99 +10 +10 1025.7 1013.0 +11.1
06 21.08 ЮВ 1 20 км 9/0
[Cc]
+19.4 +15.7 79 +22 +26 комфорт 1025.1 1012.8 +10.9
09 21.08 В 1 10 км слаб. ливневой дождь 10/10 300 м
[Cb cap]
+18.0 +16.0 88 +19 +19 1024.0 1011.7
12 21.08 СВ 3 10 км слаб. ливневой дождь 10/10 300 м
[Cb cap]
+18.3 +16.9 92 +19 +19 1021.6 1009.3
15 21.08 СВ 5 10 км слаб. ливневой дождь 10/10 300 м
[Cb cap]
+15.0 +14.7 98 +13 +13 1017.5 1005.1 13
18 21.08 СЗ 3 10 км слаб. ливневой дождь 10/10 300 м
[Cb cap]
+14.4 +14.1 98 +13 +13 1018.1 1005.7 +19.5 20
21 21.08 С 1 20 км {ливн. осадки} 10/10 300 м
[Cb cap]
+13.7 +13.4 98 +14 +14 1021.1 1008.6
00 22.08 З 3 20 км {ливн. осадки} 10/10 300 м
[Cb cap]
+13.0 +12.7 98 +12 +12 1023.6 1011.1
03 22.08 З 2 20 км 10/10 300 м
[Cb cap]
+12.2 +11.9 98 +11 +11 1025.3 1012.7 +12.1 12
06 22.08 З 2 20 км 10/10 300 м
[Cb cap]
+13.1 +12.5 96 +12 +12 1026.7 1014.1 +12.1 5
09 22.08 З 3 20 км 8/8 600 м
[Cb cap]
+17.4 +12.1 71 +17 +19 1027.4 1015.0
12 22.08 З 3 20 км 6/6 1000 м
[Cb cap]
+19.1 +12.4 65 +20 +23 1028.1 1015.8
15 22.08 З 3 20 км 5/5 1000 м
[Cb cap]
+19.7 +11.7 60 +21 +22 комфорт 1027.6 1015.3
18 22.08 ЮЗ 1 20 км 5/3 600 м
[Cb cap Ac trans]
+15.5 +12.2 81 +16 +16 1028.1 1015.6 +20.3
21 22.08 ЮВ 1 20 км 8/0
[Ac As]
+12.2 +11.7 97 +12 +12 1029.3 1016.6
00 23.08 ЮВ 1 20 км 3/0
[Ac trans]
+11.7 +11.2 97 +11 +11 1029.5 1016.8

 

Местоположение метеостанции Пушкинские Горы (Псковская область, Россия): широта 57.02 долгота 28.90 высота над уровнем моря 108 м.

В архиве по умолчанию представлена погода в Пушкинских Горах за последнюю неделю. Архивные данные за месяц целиком и за предыдущие месяцы, начиная с января 2011 года, Вы можете получить, выбрав интересующий диапазон дат из раскрывающегося списка и нажав кнопку "Ввод!".


*Определитесь, кто Вы:
робот инопланетянин человек

Внимание! Время в таблицах - всемирное. Для получения местного времени необходимо прибавить поправку, которая равна 3 ч.

Смотрите также архив погоды в соседних городах и на ближайших метеорологических станциях:

Погода в Опочке (Псковская область, Россия) (35 км)
Погода в Сущево (Псковская область, Россия) (61 км)
Погода в Пскове (Псковская область, Россия) (95 км)
Погода в Дно (Псковская область, Россия) (109 км)
Погода в Резекне (Латвия) (113 км)
Погода в Алуксне (Латвия) (121 км)
Погода в Великих Луках (Псковская область, Россия) (129 км)
Погода в Гулбене (Латвия) (132 км)
Погода в Холме (Новгородская область, Россия) (139 км)
Погода в Стругах-Красных (Псковская область, Россия) (140 км)

Пояснения к столбцам:

Ветер - указаны скорость ветра в м/с - средняя за 10 мин, порывы в срок и между сроками (в фигурных скобках) и направление, откуда дует ветер: С - северный, СВ - северо-восточный, В - восточный, ЮВ - юго-восточный, Ю - южный, ЮЗ - юго-западный, З - западный, СЗ - северо-западный.
Видимость - горизонтальная дальность видимости в метрах или километрах. При видимости от 1 до 10 км при отсутствии осадков обычно наблюдается дымка, при ухудшении видимости до 1 км и менее - туман. В сухую погоду видимость может ухудшаться дымом, пылью или мглою.
Явления - указаны атмосферные явления, наблюдавшиеся в срок или в последний час перед сроком; фигурными скобками обозначены явления, наблюдавшиеся между сроками (за 1-3 часа до срока); квадратными скобками обозначены град или гололедные отложения с указанием их диаметра в мм.
Облачность - указаны через наклонную черту общая и нижняя облачность в баллах и высота нижней границы облаков в метрах; квадратными скобками обозначены формы облаков: Ci - перистые, Cs - перисто-слоистые, Cc - перисто-кучевые, Ac - высококучевые, As - высокослоистые, Sc - слоисто-кучевые, Ns - слоисто-дождевые, Cu - кучевые, Cb - кучево-дождевые. Подробнее классификацию облаков см. в Атласе облаков (PDF).
T - Температура воздуха - температура, измеренная на высоте 2 м над землей.
Td - Температура точки росы - температура, при понижении до которой содержащийся в воздухе водяной пар достигнет насыщения.
f - Относительная влажность воздуха - влажноcть воздуха, измеренная на высоте 2 м над землей.
Te - Эффективная температура - температура, которую ощущает одетый по сезону человек в тени. Характеристика душности погоды. При расчете учитывается влияние влажности воздуха и скорости ветра на теплоощущения человека.
Tes - Эффективная температура на солнце - температура, которую ощущает человек, с поправкой на солнечный нагрев. Характеристика знойности погоды. Зависит от высоты солнца над горизонтом, облачности и скорости ветра. Ночью, в пасмурную погоду, а также при ветре 12 м/с и более поправка равна нулю.
P - Атмосферное давление - приведенное к уровню моря атмосферное давление.
Po - Атмосферное давление - измеренное на уровне метеостанции атмосферное давление.
Tmin - Минимальная температура - минимум температуры воздуха на высоте 2 м над землей.
Tmax - Максимальная температура - максимум температуры воздуха на высоте 2 м над землей.
R - Количество осадков - Количество выпавших осадков за период времени, мм. При наведении курсора мыши на число - период времени, за который выпало указанное количество осадков.
R24 - Количество осадков - Количество выпавших осадков за 24 часа, мм.
S - Снежный покров - Высота снежного покрова, см. При наведении курсора мыши на число - состояние снежного покрова и степень покрытия местности в баллах.